SCP
0 0 0 0 0 0 0 0 0 0 0 0 1 1 1 1 1 1 1 1 1 2 2 2 2 2 2 2 2 2 2 2 2 2 2 1 1 2 1 1 1 1 1 1 1 1 1 1 1
0 0 0 0 0 0 0 0 0 0 0 0 1 1 1 1 1 1 2 2 2 2 2 2 2 2 2 2 2 2 2 2 2 2 2 2 2 2 2 1 1 1 1 1 1 1 1 1 1
0 0 0 0 0 0 0 0 0 0 0 0 1 1 1 1 1 2 2 2 2 2 2 2 2 2 2 2 2 2 2 2 2 2 2 2 2 2 2 2 1 1 1 1 1 1 1 1 1
0 0 0 0 0 0 0 0 0 0 0 0 1 1 1 1 1 1 1 2 2 2 2 2 2 2 2 2 2 2 2 2 2 2 2 2 2 2 2 2 2 2 2 1 1 1 1 1 1
0 0 0 0 0 0 0 0 0 0 0 0 0 0 1 1 1 1 1 1 2 2 3 3 2 2 1 2 2 2 2 2 2 2 2 3 3 2 2 2 2 2 2 2 2 1 1 1 1
0 0 0 0 0 0 0 0 0 0 1 0 0 0 1 1 1 1 1 2 2 3 3 3 2 2 1 2 2 2 2 2 2 2 2 2 2 2 2 2 2 2 2 2 2 2 2 2 2
0 0 0 0 0 0 0 0 0 0 0 0 0 1 1 1 1 1 1 2 2 3 3 3 2 2 1 1 2 2 2 2 2 2 2 2 2 2 2 2 2 2 2 2 2 2 2 2 2
0 0 0 0 0 0 0 0 0 0 0 0 0 1 1 1 1 1 2 2 2 2 3 3 2 2 1 1 2 2 2 2 2 1 2 2 2 2 2 2 2 2 2 2 2 2 2 2 2
0 0 0 0 0 0 0 0 0 0 0 0 1 1 1 2 2 2 2 3 3 3 3 3 2 2 1 1 1 1 1 1 1 1 1 2 2 2 2 2 2 2 2 2 2 2 2 2 2
0 0 0 0 0 0 0 0 0 0 0 0 1 1 2 2 2 2 3 3 4 4 3 3 2 2 2 2 2 2 2 1 1 1 2 2 2 1 1 1 1 2 2 2 2 2 2 2 1
0 0 0 0 0 1 1 1 0 0 0 1 1 1 2 2 2 2 2 3 3 4 3 3 2 2 2 3 3 3 2 2 2 2 2 2 2 1 1 1 1 1 2 2 2 2 2 1 1
0 0 0 1 1 1 1 1 1 0 0 1 1 1 1 1 1 2 2 2 3 3 3 3 2 3 3 4 4 4 4 4 3 3 3 3 2 2 1 2 2 2 2 2 2 2 2 1 1
0 0 1 1 1 1 1 1 1 0 0 1 1 1 1 1 1 2 2 2 3 3 3 3 3 3 4 5 6 6 6 5 5 5 5 4 3 2 1 1 2 2 2 2 2 2 2 1 1
0 1 2 2 2 2 1 1 0 0 0 1 1 1 1 1 1 2 2 2 3 3 4 4 3 4 5 6 6 6 7 7 8 9 8 6 3 2 1 1 1 1 1 2 2 2 2 2 2
1 1 2 2 2 2 1 1 0 0 0 0 1 1 1 1 2 3 3 2 3 4 4 4 4 4 5 5 6 6 7 9 11 12 10 7 4 2 2 1 1 1 1 1 2 2 2 2 2
1 1 2 2 2 1 1 0 0 0 0 0 1 1 1 2 2 3 3 3 3 4 5 5 4 4 5 5 6 6 8 11 12 12 9 5 3 2 2 1 1 1 1 1 1 2 2 2 2
1 1 1 1 2 1 1 1 0 0 0 1 1 1 1 2 2 2 2 2 3 4 5 5 5 4 4 5 6 7 10 12 11 9 7 4 2 2 2 2 2 2 2 1 1 1 2 2 2
0 0 1 1 2 1 1 1 0 0 1 1 1 1 1 2 2 2 2 2 3 4 5 5 5 5 5 6 7 9 11 11 8 7 6 4 2 2 2 2 2 2 2 2 1 1 1 1 1
0 0 1 1 2 2 1 1 1 1 1 1 1 1 1 2 2 2 2 3 3 4 5 5 5 5 6 7 8 9 9 7 5 5 5 4 2 2 2 2 2 2 2 2 2 1 1 1 1
0 0 1 1 2 2 2 1 1 1 1 1 1 1 2 2 2 2 2 3 3 4 4 5 5 5 7 8 8 7 6 5 4 4 4 3 2 2 2 2 2 2 2 2 2 2 2 2 1
1 1 1 1 2 2 2 1 1 1 0 1 1 2 2 3 2 2 2 2 3 3 4 5 5 5 6 6 6 6 5 5 4 4 3 3 2 2 2 2 2 2 2 2 2 2 2 2 1
0 0 1 1 1 1 1 1 1 1 1 1 1 2 2 2 3 2 2 2 2 3 4 4 5 5 5 5 6 6 5 5 4 3 2 2 2 2 2 2 2 2 3 3 3 3 2 2 1
0 0 0 0 1 1 1 0 1 1 1 1 1 2 2 2 2 2 3 3 3 3 4 4 4 5 5 6 6 6 6 5 4 3 3 3 3 2 2 2 2 2 3 3 3 3 2 2 1
0 0 0 0 0 0 0 0 0 1 1 1 1 1 2 2 2 2 3 3 3 4 4 5 5 5 6 6 7 7 7 7 5 4 4 3 3 3 2 2 3 3 3 3 3 3 2 2 2
0 0 0 0 0 0 0 0 0 0 0 1 1 2 2 3 3 3 3 3 4 4 5 5 6 6 6 6 7 8 8 8 6 5 4 4 3 3 3 3 3 3 3 3 3 3 3 3 3
0 0 0 0 0 0 0 0 0 1 1 1 1 2 3 4 4 4 4 3 3 4 5 6 7 7 6 6 7 8 8 7 5 5 5 4 3 3 3 4 4 4 4 4 4 3 3 3 3
0 0 0 0 0 0 0 0 1 1 1 1 1 2 3 3 4 4 5 4 3 3 5 6 6 6 5 5 6 6 6 5 4 5 5 4 4 3 3 3 4 5 5 4 4 4 4 3 3
0 0 0 0 0 0 0 1 1 1 1 1 2 2 2 2 3 3 4 5 4 3 4 5 5 4 4 4 4 4 4 4 4 4 4 4 4 4 4 4 4 4 5 5 5 4 4 3 3
0 0 0 1 1 0 0 1 1 1 1 1 2 2 2 2 3 3 3 4 3 3 3 3 3 3 3 3 3 3 3 3 3 3 4 4 5 5 5 4 4 4 5 5 5 4 3 3 3
0 0 1 1 1 0 0 1 1 1 2 2 2 2 2 2 3 3 3 3 3 3 3 3 3 2 2 2 2 2 2 3 3 3 4 4 5 5 5 4 4 5 5 5 5 3 2 2 2
Wind_Speed
10 8 6 6 8 5 1 3 2 2 2 3 3 3 4 5 5 5 6 7 6 9 11 13 10 9 9 9 10 10 10 10 10 10 9 9 9 9 8 8 8 8 8 8 8 8 8 7 7
6 6 7 7 6 2 3 3 2 3 3 2 1 0 1 3 5 5 6 7 8 8 10 10 12 9 9 9 10 10 10 10 10 10 10 9 9 8 8 8 8 8 7 7 7 7 7 7 7
6 7 7 6 3 2 3 3 2 3 1 1 1 1 2 3 4 4 6 9 9 9 9 11 11 9 9 9 10 10 10 10 9 9 9 9 8 8 7 7 8 7 7 6 6 6 6 6 6
6 7 7 6 3 1 3 2 1 1 2 1 1 2 3 4 3 5 8 9 9 9 9 12 10 9 8 9 9 9 9 9 9 9 9 8 7 7 7 7 8 7 6 6 6 5 5 6 6
7 7 7 5 3 0 1 2 2 3 1 1 2 2 4 5 5 7 9 9 8 8 8 11 10 8 8 8 8 9 8 8 8 8 8 7 7 6 6 6 7 7 6 6 6 5 6 5 6
6 6 7 5 2 0 1 2 4 4 2 2 3 2 4 6 6 8 9 9 8 8 8 11 10 8 8 7 7 7 8 8 7 7 7 7 7 6 6 6 6 6 7 6 6 5 5 5 5
8 6 7 5 3 2 1 2 4 4 3 2 2 2 6 7 7 8 8 8 8 8 8 9 10 10 9 7 6 6 7 7 7 7 7 7 7 6 6 6 6 6 6 6 6 6 6 5 5
7 7 8 6 5 2 1 1 2 5 2 1 3 3 4 8 9 9 8 8 8 7 7 7 7 8 8 8 7 6 7 6 7 7 8 8 8 7 7 7 6 6 6 6 6 6 6 6 6
7 9 8 5 5 2 0 3 1 3 2 3 3 1 4 11 11 10 9 8 8 7 6 6 6 6 6 7 8 8 8 7 8 8 8 8 7 7 7 6 6 6 6 6 6 6 6 5 6
8 9 8 5 5 4 3 5 3 4 6 5 5 4 7 11 11 11 10 10 9 9 8 7 6 6 6 5 6 5 5 6 5 5 6 5 4 3 4 8 7 6 6 7 6 6 6 5 4
8 9 7 6 6 6 7 6 5 7 7 5 5 6 9 11 11 10 10 9 8 8 8 7 6 5 5 4 4 3 3 4 5 6 5 4 4 4 4 4 6 6 7 5 6 6 3 2 2
9 9 9 9 7 8 8 7 7 9 7 3 3 6 9 11 10 10 9 9 8 8 8 7 7 6 6 4 4 4 4 3 3 5 6 5 3 3 3 2 3 3 2 2 2 2 2 2 2
11 9 9 10 9 9 10 10 9 9 6 4 5 7 9 10 10 9 8 8 8 8 8 7 7 6 5 4 4 4 4 4 4 4 4 4 3 4 4 2 2 2 2 3 2 2 2 2 2
7 9 11 11 10 9 10 10 10 8 6 7 8 9 9 10 10 9 9 9 8 8 8 7 7 7 6 5 4 4 4 4 4 4 4 4 2 2 3 3 2 2 2 1 1 2 2 2 1
8 10 11 10 9 8 9 12 11 8 7 8 9 9 9 9 9 9 9 9 9 9 8 8 8 8 7 6 6 4 4 4 4 4 5 5 4 3 3 3 3 2 2 3 2 2 2 2 2
10 12 10 6 7 7 10 10 6 6 8 9 8 8 8 8 9 9 9 9 9 9 9 8 7 8 8 6 5 4 4 4 3 4 4 4 4 4 3 3 3 3 2 2 2 2 2 2 2
11 10 9 5 6 6 10 10 4 6 8 9 8 8 8 8 9 8 9 9 9 9 9 9 8 8 8 7 6 5 4 3 3 3 3 4 5 5 4 3 2 3 3 2 2 2 2 2 2
8 10 9 8 4 7 10 10 7 7 9 9 9 8 8 8 9 8 8 8 9 9 9 9 9 8 8 7 5 4 5 4 4 3 3 4 4 4 4 3 4 4 3 3 2 2 2 2 2
10 11 11 8 5 8 10 11 8 7 8 9 8 8 8 7 7 7 7 8 8 9 10 10 10 9 7 6 6 5 5 5 4 4 4 4 4 4 4 3 3 3 3 3 4 3 4 3 2
13 13 12 7 5 7 9 10 7 7 8 8 8 8 8 7 8 8 8 8 9 9 10 10 10 10 9 6 5 4 5 5 4 4 4 4 4 4 4 3 3 3 3 4 4 4 3 3 3
14 13 11 9 8 10 11 10 8 7 7 7 7 7 7 7 7 8 8 8 9 10 10 9 10 10 9 8 5 5 4 5 5 5 4 4 4 4 3 4 3 3 4 4 5 5 5 4 4
12 10 10 10 11 8 8 8 6 7 7 8 8 7 7 6 7 7 8 9 10 10 10 10 10 10 9 8 7 7 6 5 4 4 4 4 5 4 4 4 4 4 4 3 5 5 4 5 4
11 7 10 12 12 12 10 11 5 8 8 8 7 6 6 6 6 7 7 8 9 9 9 10 10 9 9 8 8 7 6 5 4 4 4 4 4 4 4 5 4 4 4 4 4 4 5 5 5
9 9 10 12 11 13 9 10 6 5 5 5 6 5 5 5 6 6 6 7 8 8 9 9 10 9 9 8 8 8 7 6 5 5 4 4 4 4 5 5 5 5 4 4 5 5 6 5 5
10 10 8 10 10 8 5 8 5 1 2 3 4 5 4 4 5 6 7 7 7 8 8 9 10 9 9 9 8 8 7 7 6 6 5 4 4 4 4 5 5 5 5 5 5 5 5 6 6
10 12 10 8 8 6 8 8 3 2 2 3 3 4 4 4 4 5 6 6 7 8 8 8 9 8 8 8 7 7 7 5 5 5 4 5 4 4 4 5 5 5 5 5 5 5 6 5 6
11 12 10 11 10 9 6 5 5 4 3 3 4 4 5 5 5 5 6 6 7 7 7 7 7 7 7 7 7 6 6 5 5 5 5 5 4 4 4 5 5 6 5 5 5 4 5 5 5
11 9 8 10 9 9 8 8 4 4 4 3 4 4 4 5 5 5 5 6 6 6 7 7 7 7 7 6 6 5 6 6 5 5 5 5 5 4 4 5 5 5 5 5 5 5 5 5 5
11 11 10 9 10 9 8 3 1 0 1 2 3 3 4 4 5 5 5 6 6 6 7 6 6 6 6 6 5 5 6 6 6 5 5 5 5 5 5 5 5 5 5 5 5 5 5 5 5
10 11 10 10 9 9 8 2 3 1 1 1 1 2 4 4 5 5 5 5 5 5 5 5 5 5 5 5 5 5 5 6 6 5 5 5 5 5 5 5 5 5 5 5 5 6 5 5 5
Wind_Direction
191 201 224 234 236 227 92 87 51 54 51 37 16 346 357 7 1 45 86 123 132 137 135 147 151 151 151 150 146 144 142 139 137 134 131 128 126 124 126 128 122 117 118 117 117 121 124 124 127
194 207 230 240 257 223 108 80 70 40 46 45 91 280 10 62 52 83 118 129 142 139 140 143 146 153 152 151 148 146 145 143 141 140 136 134 130 128 130 130 124 120 119 119 116 115 121 124 128
202 233 256 251 264 307 60 66 54 65 88 235 125 38 26 63 85 102 115 142 149 144 141 130 146 152 152 151 151 149 147 146 145 143 140 136 133 131 128 127 124 122 121 121 118 114 118 127 135
221 224 236 251 247 2 359 24 357 191 175 177 189 126 97 67 88 107 129 151 151 144 141 133 150 150 149 153 154 152 149 147 146 147 143 137 135 131 128 128 126 124 127 124 120 118 120 128 132
239 250 238 235 235 23 338 325 267 248 208 172 210 141 116 105 110 128 143 154 150 143 137 136 149 150 150 149 150 152 150 149 147 148 146 141 137 133 129 132 134 132 132 133 128 124 122 127 130
235 244 247 240 215 199 315 283 249 250 207 180 199 171 112 120 135 141 146 155 148 143 140 135 148 153 152 149 144 147 152 151 150 153 151 147 144 138 136 138 139 138 134 130 126 122 122 128 125
260 256 259 263 261 226 357 306 260 257 225 191 204 192 129 140 139 143 148 151 147 148 144 145 153 156 156 150 146 146 144 148 153 155 156 154 152 150 148 143 139 136 134 132 128 125 117 110 110
268 263 246 245 255 248 55 267 285 274 264 129 218 223 139 141 145 149 150 149 148 152 148 148 152 151 161 158 149 148 150 150 154 156 157 161 164 163 160 158 138 133 132 131 129 123 118 113 112
247 251 249 250 261 272 22 264 257 273 228 207 220 310 89 139 153 158 156 158 156 157 156 156 153 155 163 155 147 160 162 161 169 163 165 183 177 165 170 136 136 137 134 132 128 124 126 136 138
237 252 259 278 284 289 279 277 271 240 223 209 186 153 139 156 167 172 172 172 170 168 168 161 162 163 167 156 156 172 171 162 180 158 168 175 157 160 150 135 147 147 146 147 142 146 166 197 159
238 259 275 270 276 279 274 266 251 251 244 230 211 172 165 175 182 185 183 179 174 169 170 167 166 168 171 167 168 170 170 162 172 162 167 161 167 163 164 156 162 165 174 166 157 181 183 163 121
244 256 269 274 276 267 268 267 250 249 260 269 232 183 180 186 192 193 189 180 173 171 172 168 166 170 179 172 170 177 174 169 171 161 177 167 167 167 161 170 163 173 162 154 177 165 137 140 145
240 256 265 265 262 263 263 257 259 252 246 230 208 192 192 194 197 193 191 184 178 176 174 173 173 168 174 174 186 177 179 174 163 164 163 171 169 170 161 163 179 179 157 170 175 156 142 160 164
256 263 265 262 255 249 251 251 244 238 224 214 205 200 197 200 200 192 189 189 185 179 177 171 173 170 174 180 189 182 178 173 170 160 155 167 160 148 166 166 163 165 162 138 158 146 160 180 156
257 255 252 244 241 238 245 241 231 223 212 217 212 203 203 203 200 198 193 191 186 180 177 174 173 173 178 184 187 179 175 167 165 154 156 165 163 149 167 166 170 159 147 156 173 154 183 191 182
237 243 246 220 224 221 239 250 214 201 212 219 214 203 201 199 203 196 192 192 186 180 176 176 175 174 177 180 181 172 166 162 161 157 152 161 163 161 175 174 169 151 177 181 174 193 197 199 209
223 244 253 242 208 227 239 261 232 215 222 222 215 207 203 197 201 195 191 189 187 180 175 176 177 177 177 175 172 166 156 157 163 163 160 158 172 175 185 181 160 178 189 197 206 184 220 213 219
245 253 255 260 220 241 251 258 247 221 228 226 217 210 204 201 199 191 186 185 184 179 175 176 177 175 173 172 171 170 163 161 169 164 158 164 172 176 190 182 174 192 191 197 204 202 222 239 234
271 267 266 265 257 255 257 261 251 232 226 221 214 209 205 202 189 180 181 182 180 177 175 177 179 173 174 174 178 176 172 168 166 170 168 176 181 180 196 198 178 202 197 203 205 208 200 222 222
253 258 262 257 250 262 266 264 250 232 227 218 212 207 203 196 185 181 184 183 180 178 176 176 179 175 179 175 176 178 172 172 164 169 171 184 188 195 192 201 208 198 199 200 208 215 220 215 221
245 252 261 270 272 249 258 248 223 203 205 204 209 209 204 197 195 188 185 186 182 179 178 175 175 175 180 174 172 164 169 173 168 174 175 184 192 196 203 199 217 209 214 202 209 211 219 219 215
246 247 257 263 263 256 245 260 220 200 203 204 204 203 202 197 198 194 187 185 184 178 175 171 171 173 173 175 179 179 184 185 178 182 174 186 194 198 199 207 213 221 224 207 215 210 226 226 226
249 258 255 257 258 263 243 255 227 195 211 206 202 204 200 197 191 186 186 184 180 175 170 169 167 170 174 183 183 190 193 188 178 180 171 189 188 201 203 204 209 215 225 219 226 215 227 231 237
246 247 245 243 244 245 242 254 243 201 216 207 194 197 198 189 178 172 167 168 170 172 168 166 166 168 174 183 188 194 190 188 183 186 183 194 195 199 203 210 213 219 225 219 222 220 223 236 243
225 238 234 225 224 237 211 244 244 211 215 229 205 190 187 181 172 162 160 160 162 166 168 167 166 170 175 184 188 191 191 190 193 198 195 206 204 203 204 215 216 222 224 221 223 220 230 230 233
217 236 247 253 246 239 210 236 210 157 174 203 197 176 174 171 164 160 158 161 162 162 167 166 166 169 175 182 185 188 192 197 195 202 211 209 217 214 206 215 218 220 220 219 219 223 221 224 232
218 228 256 267 263 262 233 212 197 179 178 183 174 164 170 168 162 160 155 159 159 159 165 165 162 165 171 175 178 184 191 198 197 198 209 211 214 213 204 212 218 216 214 219 219 225 223 222 226
242 234 234 246 251 254 246 232 231 196 194 188 191 176 162 159 159 154 153 155 156 157 160 163 164 169 170 173 180 178 181 188 197 204 204 213 213 216 213 213 217 215 213 212 216 220 216 220 225
214 219 232 245 254 260 258 250 48 167 220 216 202 179 160 158 156 151 150 151 152 151 154 162 165 167 173 178 179 182 182 185 193 198 207 210 214 216 221 220 220 216 216 214 216 225 217 222 226
230 233 231 243 246 251 263 267 76 110 166 200 198 155 150 154 153 146 141 146 149 147 148 154 164 172 176 177 179 184 185 188 192 194 203 207 212 218 220 220 221 222 219 215 220 228 226 226 227